sat.trackr.live / text

‹ back to catalog

STARLINK-30424

NORAD 57857 · 2023-141T

PAYLOAD ACTIVE UNKNOWN

§ Identity

Operator
Country
US
Launch date
2023-09-12
Launch site
AFWTR
Launch vehicle
Mass (kg)
RCS (m²)

Purposes: comms

External: N2YO · Heavens-Above · Gunter

§ Orbital elements

Epoch: 2026-05-24T19:33:47.682144Z

Period
94.10 min
Inclination
53.1613°
Eccentricity
0.0000698
Mean motion
15.30211515 rev/d
Perigee alt
474.7 km
Apogee alt
475.7 km
Semi-major
6,853.3 km
B*
2.4687e-5
RAAN
264.5252°
Arg perigee
70.2712°
Mean anomaly
289.8364°
Rev number
15,234

§ Raw data

STARLINK-304241 57857U 23141T   26144.81513521  .00000373  00000+0  24687-4 0  99992 57857  53.1613 264.5252 0000698  70.2712 289.8364 15.30211515152340

JSON: /api/v1/satellites/57857 · /tle

For live sub-satellite position, see the globe view (requires WebGL).

§ Visibility from observer

Set your observer location to see the next 7 days of passes ≥ 10°. The values pass through the URL so the page stays shareable.

No JS? Fill the form by hand. The geolocation button needs JavaScript.